Regional Weather Roundup
Issued by NWS

Home | Current Version | Previous Version | Graphics & Text | Print | Product List | Glossary Off
Versions: 1 2 3 4 5 6 7 8 9 10 11 12 13 14 15 16 17 18 19 20 21 22 23 24 25 26 27 28 29 30 31 32 33 34 35 36 37 38 39 40 41 42 43 44 45 46 47 48 49 50

000
ASUS43 KDMX 241706
RWRIA

WEATHER ROUNDUP FOR IOWA
NATIONAL WEATHER SERVICE DES MOINES IA
1100 AM CST TUE JAN 24 2017

NOTE: "FAIR" INDICATES FEW OR NO CLOUDS BELOW 12,000 FEET WITH NO
SIGNIFICANT WEATHER AND/OR OBSTRUCTIONS TO VISIBILITY.

* - THESE STATIONS ARE NOT NWS STATIONS...THUS NOT UNDER NWS
QUALITY CONTROL.  THEY ALSO DO NOT REPORT WEATHER SUCH
AS PRECIPITATION OR FOG.

IAZ001>003-012>014-020>022-031>034-043>046-241800-
   NORTHWEST IOWA

CITY           SKY/WX    TMP DP  RH WIND       PRES   REMARKS
CARROLL *      CLOUDY    32  32 100 E16       29.79S FOG     WCI  21
CHEROKEE *     CLOUDY    31  31  99 SE12G18   29.81R WCI  22
DENISON *      CLOUDY    32  30  93 E15G22    29.73F WCI  22
LE MARS *      CLOUDY    32  30  93 E9G15     29.80R WCI  24
ORANGE CITY *  CLOUDY    30  28  93 E12G20    29.78R WCI  21
SHELDON *      CLOUDY    30  32 100 E20       29.77R WCI  18
SIOUX CITY     HVY SNOW  32  31  96 E10       29.76S VSB 1/4 WCI  24
SPENCER        CLOUDY    31  29  92 E13       29.80R WCI  21
STORM LAKE *   CLOUDY    30  30 100 E18       29.79R FOG     WCI  18
$$

IAZ055>058-069>071-079>083-090>094-241800-
   SOUTHWEST IOWA

CITY           SKY/WX    TMP DP  RH WIND       PRES   REMARKS
ATLANTIC *     CLOUDY    32  30  93 E18       29.74F FOG     WCI  20
AUDUBON *      CLOUDY    30  28  93 E14       29.77F FOG     WCI  20
CLARINDA *     CLOUDY    32  32 100 E16G23    29.72F WCI  21
COUNCIL BLFS * CLOUDY    32  32 100 E20G28    29.69S WCI  20
CRESTON *      CLOUDY    30  30 100 E17G23    29.77F FOG     WCI  18
HARLAN  *      CLOUDY    30  32 100 E20G25    29.75F FOG     WCI  18
LAMONI         CLOUDY    32  30  92 E9        29.77F WCI  24
RED OAK *      CLOUDY    32  30  93 E15G22    29.71F WCI  22
SHENANDOAH *   CLOUDY    34  30  86 E18       29.69F WCI  23
$$

IAZ047>049-059>061-072>074-084-241800-
   CENTRAL IOWA

CITY           SKY/WX    TMP DP  RH WIND       PRES   REMARKS
AMES           CLOUDY    32  30  92 E9        29.83S WCI  24
ANKENY *       CLOUDY    32  30  93 E10G17    29.85R WCI  24
BOONE *        CLOUDY    32  32 100 SE14      29.81S WCI  22
CHARITON *     CLOUDY    30  30 100 E15       29.80F FOG     WCI  19
DES MOINES     CLOUDY    32  29  88 E9        29.83F WCI  24
GRINNELL*      CLOUDY    32  29  90 E13       29.86R WCI  22
KNOXVILLE *    CLOUDY    30  30 100 E13       29.81F FOG     WCI  20
MARSHALLTOWN   CLOUDY    32  29  88 E12       29.83F WCI  23
NEWTON *       CLOUDY    32  28  86 E12G18    29.84F WCI  23
PELLA *        CLOUDY    31  30  94 MISG      29.86F FOG
PERRY *        CLOUDY    32  31  95 E15       29.82R FOG     WCI  22
$$

IAZ004>006-015-016-023>025-035-036-241800-
   NORTH CENTRAL IOWA

CITY           SKY/WX    TMP DP  RH WIND       PRES   REMARKS
ALGONA *       CLOUDY    30  30 100 E14       29.82S FOG     WCI  20
CLARION *      CLOUDY    32  32 100 E14       29.83R WCI  22
ESTHERVILLE    CLOUDY    29  28  96 NE17      29.80F WCI  17
FORT DODGE *   CLOUDY    30  27  86 E15       29.82F WCI  19
MASON CITY     CLOUDY    30  27  88 E13       29.84F WCI  20
FOREST CITY *  CLOUDY    30  30 100 E10       29.82F WCI  21
WEBSTER CITY * CLOUDY    32 N/A N/A E12       29.80F WCI  23
IOWA FALLS *   CLOUDY    32  29  89 E14       29.83F WCI  22
$$

IAZ007>011-017>019-026>030-037>042-050>054-066-241800-
   NORTHEAST IOWA

CITY           SKY/WX    TMP DP  RH WIND       PRES   REMARKS
CEDAR RAPIDS   CLOUDY    31  28  89 E8        29.86F FOG     WCI  23
CHARLES CITY * CLOUDY    32  30  93 E10       29.85F WCI  24
CLINTON *      CLOUDY    35  33  92 SE6       29.90S WCI  30
DECORAH *      CLOUDY    32  28  86 VRB3      29.85F
DUBUQUE        CLOUDY    33  29  85 E3        29.87F
MONTICELLO *   CLOUDY    32  28  86 VRB7      29.88S WCI  26
OELWEIN *      CLOUDY    32  30  93 E9        29.86S WCI  24
WATERLOO       CLOUDY    33  28  81 E10       29.86S WCI  25
$$

IAZ064-065-067-068-078-241800-
   EAST CENTRAL IOWA

CITY           SKY/WX    TMP DP  RH WIND       PRES   REMARKS
DAVENPORT      CLOUDY    35  30  82 SE7       29.89S WCI  29
IOWA CITY      CLOUDY    34  29  82 E7        29.90S WCI  28
MUSCATINE *    CLOUDY    36  30  80 SE7G13    29.90S WCI  30
QUAD CITIES    CLOUDY    37  30  75 SE8       29.88F WCI  31
$$

IAZ062-063-075>077-085>089-095>099-241800-
   SOUTHEAST IOWA

CITY           SKY/WX    TMP DP  RH WIND       PRES   REMARKS
BURLINGTON     CLOUDY    34  30  85 VRB3      29.88F
FAIRFIELD *    CLOUDY    32  30  93 E7        29.86F FOG     WCI  26
FORT MADISON * CLOUDY    34  32  93 CALM      29.89R
KEOKUK *       CLOUDY    36 N/A N/A SE5       29.88R WCI  32
OSKALOOSA *    CLOUDY    31  30  96 E12       29.85F FOG     WCI  22
CENTERVILLE *  MIX PCPN  32  32 100 E13       29.83S WCI  22
OTTUMWA        CLOUDY    31  29  92 E13       29.84F FOG     WCI  21
WASHINGTON *   CLOUDY    32  32 100 E7        29.88F WCI  26
$$

ABBREVIATIONS USED IN REMARKS
   TC - TEMPERATURES IN CELSIUS
  WCI - WIND CHILL INDEX
   HX - HEAT INDEX
  VSB - VISIBILITY
$$




USA.gov is the U.S. government's official web portal to all federal, state and local government web resources and services.